User: anonymous   Login
Location: Unspecified
(28.4550°N, 0.0000°E)
Time: 09:24:18
(UTC+00:00)
Language:

Stella - Orbit

View from above orbital plane
View from above orbital plane
View from above satellite
View from above satellite

Ground track
Ground track

The orbit is defined by the following mean orbital elements,

1 22824U          26088.21522925 +.00000000 +00000-0 +65338-5 0 00003
2 22824  98.7800 152.1527 0007431 107.2272 315.2515 14.27468143    03
Epoch (UTC): 29 March 2026 05:09:55
Eccentricity: 0.0007431
inclination: 98.7800°
perigee height: 795 km
apogee height: 806 km
right ascension of ascending node: 152.1527°
argument of perigee: 107.2272°
revolutions per day: 14.27468143
mean anomaly at epoch: 315.2515°

The dashed part of the orbit path shows where the satellite is in the earth's shadow,  

DLR